Tracking 19832 objects as of 25-Aug-2019
HD Live streaming from Space Station
objects crossing your sky now

BRAZILSAT 1

Track BRAZILSAT 1 now!
BRAZILSAT 1 is classified as:


NORAD ID: 15561
Int'l Code: 1985-015B
Perigee: 35,973.4 km
Apogee: 36,018.7 km
Inclination: 15.3 °
Period: 1,446.4 minutes
Semi major axis: 42367 km
RCS: 2.7147 m2 (large)
Launch date: February 8, 1985
Source: Brazil (BRAZ)
Launch site: FRENCH GUIANA (FRGUI)
aabbcc
Your satellite tracking list
Your tracking list is empty




NASA's NSSDC Master Catalog

Two Line Element Set (TLE):
1 15561U 85015B   19237.11289194 -.00000170  00000-0  00000+0 0  9992
2 15561  15.2867   5.1557 0005345 313.5939 226.9163  0.99554358101832
Source of the keplerian elements: AFSPC